This demonstration page uses our WeatherBlox Daily Observations layout. Learn more.

Left ArrowRight Arrow

40.92945, -100.16068

Hourly Observations for April 27, 2020

Temp ( °F °C ) Dew Point ( °F °C ) Humidity (%) Winds ( mph kmh ) Pressure ( in mb ) Visibility ( mi km ) Precip ( " mm )
12:15 am 00:15 Clear 64 18 44 6.6 47 47 WSW 12 19 29.86 1011 10 16 0.00 0.00
12:35 am 00:35 Clear 64 17.7 44 6.7 49 49 SW 12 19 29.85 1011 10 16 0.00 0.00
12:55 am 00:55 Clear 63 17.1 44 6.8 51 51 SW 13 20 29.87 1011 10 16 0.00 0.00
1:15 am 01:15 Clear 62 16.5 44 6.7 53 53 SSW 12 19 29.86 1011 10 16 0.00 0.00
1:35 am 01:35 Clear 59 15.1 44 6.5 57 57 SW 6 9 29.89 1012 10 16 0.00 0.00
1:55 am 01:55 Clear 56 13.4 43 6.3 62 62 WNW 7 11 29.90 1013 10 16 0.00 0.00
2:15 am 02:15 Clear 55 13 44 6.9 67 67 WNW 8 13 29.91 1013 10 16 0.00 0.00
2:35 am 02:35 Clear 56 13.1 44 6.7 65 65 W 8 13 29.91 1013 10 16 0.00 0.00
2:55 am 02:55 Clear 51 10.6 44 6.5 76 76 Calm 29.95 1014 10 16 0.00 0.00
3:15 am 03:15 Clear 53 11.5 44 6.6 72 72 SSE 3 6 29.94 1014 10 16 0.00 0.00
3:35 am 03:35 Clear 52 11.1 43 6.1 72 72 Calm 29.93 1014 10 16 0.00 0.00
3:55 am 03:55 Clear 50 10.2 42 5.8 74 74 SSE 3 6 29.95 1014 10 16 0.00 0.00
4:15 am 04:15 Clear 54 12.4 42 5.8 64 64 W 3 6 29.93 1014 10 16 0.00 0.00
4:35 am 04:35 Clear 53 11.6 42 5.5 66 66 Calm 29.94 1014 10 16 0.00 0.00
4:55 am 04:55 Clear 51 10.8 42 5.5 70 70 WNW 3 6 29.94 1014 10 16 0.00 0.00
5:15 am 05:15 Clear 46 7.9 41 5 82 82 NW 7 11 29.97 1015 10 16 0.00 0.00
5:35 am 05:35 Clear 47 8.3 42 5.6 83 83 WNW 6 9 29.97 1015 10 16 0.00 0.00
5:55 am 05:55 Clear 48 8.8 42 5.3 79 79 WNW 6 9 29.95 1014 10 16 0.00 0.00
6:15 am 06:15 Clear 45 7.4 41 5.2 86 86 WSW 3 6 29.98 1015 10 16 0.00 0.00
6:35 am 06:35 Clear 44 6.7 40 4.6 87 87 NNW 3 6 29.97 1015 10 16 0.00 0.00
6:55 am 06:55 Sunny 44 6.5 39 4.1 85 85 NW 3 6 29.98 1015 10 16 0.00 0.00
7:15 am 07:15 Sunny 44 6.7 40 4.6 87 87 Calm 29.98 1015 10 16 0.00 0.00
7:35 am 07:35 Sunny 47 8.4 43 6.2 86 86 NW 6 9 29.97 1015 10 16 0.00 0.00
7:55 am 07:55 Sunny 51 10.5 46 7.6 82 82 NW 3 6 29.95 1014 10 16 0.00 0.00
8:15 am 08:15 Sunny 54 12.3 47 8.1 76 76 WNW 3 6 29.93 1014 10 16 0.00 0.00
8:35 am 08:35 Sunny 56 13.1 47 8.3 73 73 NW 9 15 29.93 1014 10 16 0.00 0.00
8:55 am 08:55 Sunny 58 14.5 47 8.5 67 67 NW 6 9 29.91 1013 10 16 0.00 0.00
9:15 am 09:15 Sunny 61 16 48 8.9 63 63 WNW 6 9 29.90 1012 10 16 0.00 0.00
9:35 am 09:35 Sunny 62 16.8 48 9 60 60 W 7 11 29.89 1012 10 16 0.00 0.00
9:55 am 09:55 Sunny 65 18.1 49 9.6 58 58 W 5 7 29.88 1012 10 16 0.00 0.00
10:15 am 10:15 Sunny 66 19.1 49 9.6 54 54 Calm 29.86 1011 10 16 0.00 0.00
10:35 am 10:35 Sunny 69 20.5 50 10.1 51 51 Calm 29.85 1011 10 16 0.00 0.00
10:55 am 10:55 Sunny 71 21.5 49 9.6 47 47 Calm 29.84 1010 10 16 0.00 0.00
11:15 am 11:15 Sunny 72 22.4 50 9.9 45 45 Calm 29.83 1010 10 16 0.00 0.00
11:35 am 11:35 Sunny 73 22.5 49 9.5 44 44 Calm 29.83 1010 10 16 0.00 0.00
11:55 am 11:55 Sunny 73 23 49 9.5 42 42 Calm 29.83 1010 10 16 0.00 0.00
12:15 pm 12:15 Sunny 74 23.5 48 9.1 40 40 Calm 29.82 1010 10 16 0.00 0.00
12:35 pm 12:35 Sunny 76 24.2 47 8.6 37 37 N 3 6 29.81 1009 10 16 0.00 0.00
12:55 pm 12:55 Sunny 76 24.7 46 7.5 33 33 WNW 5 7 29.80 1009 10 16 0.00 0.00
1:15 pm 13:15 Sunny 78 25.3 45 7.4 32 32 Calm 29.79 1009 10 16 0.00 0.00
1:35 pm 13:35 Sunny 78 25.3 46 7.7 33 33 E 5 7 29.78 1008 10 16 0.00 0.00
1:55 pm 13:55 Sunny 78 25.6 47 8.2 33 33 E 3 6 29.77 1008 10 16 0.00 0.00
2:15 pm 14:15 Sunny 78 25.4 45 7.2 31 31 ESE 3 6 29.76 1008 10 16 0.00 0.00
2:35 pm 14:35 Sunny 79 26.1 46 8 32 32 SE 6 9 29.74 1007 10 16 0.00 0.00
2:55 pm 14:55 Sunny 80 26.4 47 8.2 32 32 ESE 9 15 29.73 1007 10 16 0.00 0.00
3:15 pm 15:15 Partly Cloudy 81 27.2 49 9.2 32 32 SE 9 15 29.71 1006 10 16 0.00 0.00
3:35 pm 15:35 Partly Cloudy 81 27.2 47 8.3 30 30 S 10 17 29.71 1006 10 16 0.00 0.00
3:55 pm 15:55 Partly Cloudy 82 27.6 47 8.4 30 30 S 7 11 29.70 1006 10 16 0.00 0.00
4:15 pm 16:15 Partly Cloudy 82 27.8 46 7.6 28 28 SW 7 11 29.70 1006 10 16 0.00 0.00
4:35 pm 16:35 Partly Cloudy 82 27.9 45 7.4 27 27 SSW 10 17 29.69 1005 10 16 0.00 0.00
4:55 pm 16:55 Partly Cloudy 82 27.7 46 7.6 28 28 S 7 11 29.68 1005 10 16 0.00 0.00
5:15 pm 17:15 Partly Cloudy 82 27.5 46 7.7 29 29 S 9 15 29.68 1005 10 16 0.00 0.00
5:35 pm 17:35 Partly Cloudy 81 27.2 46 7.7 29 29 SSW 7 11 29.68 1005 10 16 0.00 0.00
5:55 pm 17:55 Partly Cloudy 82 27.8 44 6.9 27 27 SSW 12 19 29.67 1005 10 16 0.00 0.00
6:15 pm 18:15 Partly Cloudy 81 27.3 43 5.9 26 26 S 9 15 29.67 1005 10 16 0.00 0.00
6:35 pm 18:35 Partly Cloudy 82 27.5 43 6 25 25 SW 8 13 29.67 1005 10 16 0.00 0.00
6:55 pm 18:55 Partly Cloudy 80 26.8 44 6.4 27 27 S 7 11 29.67 1005 10 16 0.00 0.00
7:15 pm 19:15 Sunny 77 25.2 44 6.4 30 30 SSW 7 11 29.68 1005 10 16 0.00 0.00
7:35 pm 19:35 Sunny 76 24.7 45 7.3 33 33 SSW 5 7 29.68 1005 10 16 0.00 0.00
7:55 pm 19:55 Sunny 73 23 47 8.2 39 39 SSW 6 9 29.70 1006 10 16 0.00 0.00
8:15 pm 20:15 Sunny 74 23.2 44 6.4 34 34 S 5 7 29.69 1005 10 16 0.00 0.00
8:35 pm 20:35 Clear 71 21.7 43 6.3 37 37 SSE 8 13 29.69 1005 10 16 0.00 0.00
8:55 pm 20:55 Clear 69 20.3 43 6.2 40 40 SSE 7 11 29.70 1006 10 16 0.00 0.00
9:15 pm 21:15 Clear 66 18.9 44 6.4 44 44 SSE 8 13 29.71 1006 10 16 0.00 0.00
9:35 pm 21:35 Clear 64 17.9 43 6 46 46 SSE 8 13 29.72 1006 10 16 0.00 0.00
9:55 pm 21:55 Clear 62 16.9 43 6.2 50 50 SSE 8 13 29.73 1007 10 16 0.00 0.00
10:15 pm 22:15 Clear 62 16.5 43 6 50 50 SSE 8 13 29.73 1007 10 16 0.00 0.00
10:35 pm 22:35 Clear 64 17.8 43 6.2 47 47 S 14 22 29.72 1006 10 16 0.00 0.00
10:55 pm 22:55 Clear 68 20.2 47 8.2 46 46 S 17 28 29.69 1005 10 16 0.00 0.00
11:15 pm 23:15 Clear 67 19.5 48 8.8 50 50 S 16 26 29.69 1005 10 16 0.00 0.00
11:35 pm 23:35 Clear 67 19.4 49 9.2 52 52 S 14 22 29.69 1005 10 16 0.00 0.00
11:55 pm 23:55 Clear 67 19.2 49 9.5 54 54 S 20 31 29.68 1005 10 16 0.00 0.00

Powered by AerisWeather